This demonstration page uses our WeatherBlox Daily Observations layout. Learn more.

Left ArrowRight Arrow

38.80484, -77.04692

Hourly Observations for February 26, 2016

Temp ( °F °C ) Dew Point ( °F °C ) Humidity (%) Winds ( mph kmh ) Pressure ( in mb ) Visibility ( mi km ) Precip ( " mm )
12:52 am 00:52 Mostly Cloudy 39 3.9 24 -4.4 55 55 NW 9 15 29.81 1010 10 16 0.00 0.00
1:52 am 01:52 Mostly Cloudy 39 3.9 22 -5.6 50 50 NW 18 30 29.85 1011 10 16 0.00 0.00
2:52 am 02:52 Mostly Cloudy 36 2.2 19 -7.2 50 50 NNW 16 26 29.87 1012 10 16 0.00 0.00
3:52 am 03:52 Partly Cloudy 36 2.2 18 -7.8 48 48 NW 13 20 29.88 1012 10 16 0.00 0.00
4:52 am 04:52 Mostly Cloudy 35 1.7 18 -7.8 50 50 NW 13 20 29.90 1013 10 16 0.00 0.00
5:52 am 05:52 Cloudy 35 1.7 20 -6.7 54 54 NNW 9 15 29.93 1014 10 16 0.00 0.00
6:52 am 06:52 Cloudy 36 2.2 21 -6.1 55 55 NW 16 26 29.95 1014 10 16 0.00 0.00
7:52 am 07:52 Mostly Cloudy 36 2.2 21 -6.1 55 55 NNW 17 28 29.98 1015 10 16 0.00 0.00
8:52 am 08:52 Mostly Cloudy 37 2.8 19 -7.2 48 48 WNW 18 30 30.02 1017 10 16 0.00 0.00
9:52 am 09:52 Mostly Cloudy 37 2.8 16 -8.9 42 42 NW 24 39 30.03 1017 10 16 0.00 0.00
10:52 am 10:52 Mostly Cloudy 39 3.9 18 -7.8 43 43 WNW 24 39 30.05 1018 10 16 0.00 0.00
11:52 am 11:52 Partly Cloudy 39 3.9 16 -8.9 39 39 WNW 24 39 30.06 1018 10 16 0.00 0.00
12:52 pm 12:52 Mostly Sunny 39 3.9 15 -9.4 38 38 NW 18 30 30.06 1018 10 16 0.00 0.00
1:52 pm 13:52 Mostly Sunny 40 4.4 13 -10.6 33 33 WNW 18 30 30.06 1018 10 16 0.00 0.00
2:52 pm 14:52 Mostly Sunny 40 4.4 14 -10 35 35 NW 22 35 30.06 1018 10 16 0.00 0.00
3:52 pm 15:52 Mostly Sunny 39 3.9 13 -10.6 34 34 NW 21 33 30.09 1019 10 16 0.00 0.00
4:52 pm 16:52 Mostly Sunny 38 3.3 13 -10.6 36 36 WNW 20 31 30.10 1019 10 16 0.00 0.00
5:52 pm 17:52 Partly Cloudy 36 2.2 13 -10.6 39 39 NW 16 26 30.12 1020 10 16 0.00 0.00
6:52 pm 18:52 Partly Cloudy 35 1.7 13 -10.6 40 40 NW 14 22 30.15 1021 10 16 0.00 0.00
7:52 pm 19:52 Mostly Cloudy 34 1.1 14 -10 44 44 WNW 12 19 30.16 1021 10 16 0.00 0.00
8:52 pm 20:52 Mostly Cloudy 34 1.1 14 -10 44 44 NW 16 26 30.17 1022 10 16 0.00 0.00
9:52 pm 21:52 Partly Cloudy 33 0.6 15 -9.4 47 47 NW 13 20 30.19 1022 10 16 0.00 0.00
10:52 pm 22:52 Mostly Clear 32 0 14 -10 47 47 NW 8 13 30.19 1023 10 16 0.00 0.00
11:52 pm 23:52 Mostly Cloudy 32 0 13 -10.6 45 45 VRB 5 7 30.20 1023 10 16 0.00 0.00

Powered by AerisWeather